Regional Weather Roundup
Issued by NWS

Home | Current Version | Previous Version | Text Only | Print | Product List | Glossary On
Versions: 1 2 3 4 5 6 7 8 9 10 11 12 13 14 15 16 17 18 19 20 21 22 23 24 25 26 27 28 29 30 31 32 33 34 35 36 37 38 39 40 41 42 43 44 45 46 47 48 49 50
000
ASUS44 KFWD 170615
RWRTX
NORTH TEXAS HOURLY WEATHER ROUNDUP
NATIONAL WEATHER SERVICE FORT WORTH TX
100 AM CDT TUE OCT 17 2017

NOTE: "FAIR" INDICATES FEW OR NO CLOUDS BELOW 12,000 FEET WITH NO
SIGNIFICANT WEATHER AND/OR OBSTRUCTIONS TO VISIBILITY.

TXZ118-119-170700-
DALLAS/FORT WORTH METROPLEX

CITY           SKY/WX    TMP DP  RH WIND       PRES   REMARKS
DFW AIRPORT    CLEAR     60  41  49 CALM      30.27S
6HR MIN TEMP:  59; 6HR MAX TEMP:  69;

DALLAS LOVE    CLEAR     55  45  68 CALM      30.28F
6HR MIN TEMP:  55; 6HR MAX TEMP:  70;

FTW MEACHAM    CLEAR     57  43  59 CALM      30.28S
6HR MIN TEMP:  55; 6HR MAX TEMP:  69;

DAL-EXECUTIVE  CLEAR     51  43  74 CALM      30.28F
6HR MIN TEMP:  51; 6HR MAX TEMP:  68;

FTW-ALLIANCE   CLEAR     45  42  89 CALM      30.29R
6HR MIN TEMP:  45; 6HR MAX TEMP:  67;

FTW-NAS-JRB    CLEAR     54  43  66 W6        30.30R
6HR MIN TEMP:  54; 6HR MAX TEMP:  69;

FTW-SPINKS     CLEAR     45  41  86 CALM      30.31S
6HR MIN TEMP:  44; 6HR MAX TEMP:  66;

ARLINGTON      CLEAR     45  43  93 CALM      30.29S
6HR MIN TEMP:  44; 6HR MAX TEMP:  62;

GRAND PRAIRIE  CLEAR     59  40  50 CALM      30.30S
6HR MIN TEMP:  56; 6HR MAX TEMP:  68;

ADDISON        CLEAR     58  42  55 E3        30.30S
6HR MIN TEMP:  58; 6HR MAX TEMP:  68;

MESQUITE       CLEAR     50  39  65 CALM      30.29F
6HR MIN TEMP:  50; 6HR MAX TEMP:  66;

LANCASTER      CLEAR     47  44  86 CALM      30.30S
6HR MIN TEMP:  47; 6HR MAX TEMP:  68;

$$

TXZ091>094-102>105-117-120-121-131>134-170700-
NORTH CENTRAL TEXAS

CITY           SKY/WX    TMP DP  RH WIND       PRES   REMARKS
SHRMAN/DENISON CLEAR     51  41  68 CALM      30.30S
6HR MIN TEMP:  49; 6HR MAX TEMP:  65;

GAINESVILLE    CLEAR     48  41  75 CALM      30.31S
6HR MIN TEMP:  46; 6HR MAX TEMP:  63;

BOWIE          CLEAR     45  41  86 CALM      30.29F
6HR MIN TEMP:  44; 6HR MAX TEMP:  62;

BRIDGEPORT     CLEAR     46  42  87 CALM      30.31F
6HR MIN TEMP:  45; 6HR MAX TEMP:  63;

DECATUR          N/A     58  38  47 SE5       30.29S HAZE
6HR MIN TEMP:  55; 6HR MAX TEMP:  66;

DENTON         CLEAR     46  43  89 CALM      30.29S
6HR MIN TEMP:  46; 6HR MAX TEMP:  66;

MCKINNEY       PTCLDY    46  44  93 CALM      30.29S
6HR MIN TEMP:  45; 6HR MAX TEMP:  66;

BONHAM         CLEAR     44  42  92 S3        30.29S
6HR MIN TEMP:  43; 6HR MAX TEMP:  62;

GREENVILLE     CLEAR     46  43  87 CALM      30.29S
ROCKWALL       CLEAR     53  40  60 E5        30.29F
6HR MIN TEMP:  53; 6HR MAX TEMP:  66;

TERRELL        CLEAR     47  41  80 CALM      30.29F
6HR MIN TEMP:  47; 6HR MAX TEMP:  67;

WAXAHACHIE     CLEAR     49  42  78 CALM      30.30S
6HR MIN TEMP:  48; 6HR MAX TEMP:  65; 6HR PCP:  0.01;

CLEBURNE       CLEAR     55  43  62 CALM      30.31S
GRANBURY       CLEAR     46  40  82 CALM      30.31R
6HR MIN TEMP:  45; 6HR MAX TEMP:  68;

$$

TXZ083>090-098>101-113>116-127>130-139>142-154-155-170700-
WESTERN NORTH TEXAS

CITY           SKY/WX    TMP DP  RH WIND       PRES   REMARKS
WICHITA FALLS  CLEAR     51  42  71 CALM      30.29S
6HR MIN TEMP:  51; 6HR MAX TEMP:  67;

WF-KICKAPOO    CLEAR     51  42  72 S8        30.31F
6HR MIN TEMP:  50; 6HR MAX TEMP:  67;

VERNON         CLEAR     51  38  60 S6        30.29F
6HR MIN TEMP:  41; 6HR MAX TEMP:  72;

ABILENE        CLEAR     44  38  79 S8        30.31S WCI  39
6HR MIN TEMP:  44; 6HR MAX TEMP:  67;

ABILENE-DYESS  CLEAR     44  39  82 CALM      30.31R
6HR MIN TEMP:  44; 6HR MAX TEMP:  67;

GRAHAM           N/A     45  45 100 NE3       30.29S
6HR MIN TEMP:  45; 6HR MAX TEMP:  64;

BRECKENRIDGE   CLEAR     49  41  72 CALM      30.30S
6HR MIN TEMP:  47; 6HR MAX TEMP:  69;

CISCO          CLEAR     52  37  58 S7        30.31S
EASTLAND       CLEAR     39  37  92 CALM      30.30S
6HR MIN TEMP:  38; 6HR MAX TEMP:  62;

RANGER         CLEAR     47  40  75 SW5       30.30S
6HR MIN TEMP:  42; 6HR MAX TEMP:  91;

MINERAL WELLS  CLEAR     48  39  71 CALM      30.28S
6HR MIN TEMP:  48; 6HR MAX TEMP:  67;

STEPHENVILLE   CLEAR     47  41  80 CALM      30.32F
6HR MIN TEMP:  47; 6HR MAX TEMP:  67;

COMANCHE       CLEAR     56  37  49 S6        30.30F
6HR MIN TEMP:  56; 6HR MAX TEMP:  67;

BROWNWOOD      CLEAR     41  37  87 MISG      30.30F
COLEMAN        CLEAR     46  37  70 W7        30.31S
6HR MIN TEMP:  46; 6HR MAX TEMP:  69;

$$

TXZ143>147-156>162-174-175-170700-
CENTRAL TEXAS

CITY           SKY/WX    TMP DP  RH WIND       PRES   REMARKS
WACO           CLEAR     48  40  73 CALM      30.28F
6HR MIN TEMP:  48; 6HR MAX TEMP:  67;

WACO-MCGREGOR  CLEAR     49  37  63 NW3       30.29F
6HR MIN TEMP:  48; 6HR MAX TEMP:  68;

HILLSBORO      CLEAR     51  41  69 CALM      30.29S
6HR MIN TEMP:  51; 6HR MAX TEMP:  67;

MEXIA          CLEAR     56  41  58 N3        30.27F
6HR MIN TEMP:  56; 6HR MAX TEMP:  67;

HEARNE         CLEAR     48  42  80 CALM      30.28S
6HR MIN TEMP:  47; 6HR MAX TEMP:  65;

CAMERON        CLEAR     53  41  63 NW3       30.27F
6HR MIN TEMP:  52; 6HR MAX TEMP:  68;

TEMPLE         CLEAR     50  39  66 N5        30.29F
6HR MIN TEMP:  48; 6HR MAX TEMP:  68;

KILLEEN        CLEAR     57  38  49 NE5       30.28F
6HR MIN TEMP:  55; 6HR MAX TEMP:  67;

KILLEEN-SKYLRK CLEAR     53  40  61 N3        30.29F
6HR MIN TEMP:  53; 6HR MAX TEMP:  65;

FORT HOOD      CLEAR     56  38  50 N5        30.25F
6HR MIN TEMP:  55; 6HR MAX TEMP:  68;

GATESVILLE     CLEAR     46  41  81 CALM      30.31S
HAMILTON       CLEAR     53  38  56 S3        30.31S
6HR MIN TEMP:  53; 6HR MAX TEMP:  65;

LAMPASAS       CLEAR     50  40  68 CALM      30.28F
6HR MIN TEMP:  50; 6HR MAX TEMP:  66;

$$

TXZ095>097-106>112-122>126-135>138-148>153-164>167-170700-
EAST TEXAS

CITY           SKY/WX    TMP DP  RH WIND       PRES   REMARKS
PARIS          CLEAR     49  43  80 E6        30.30S
6HR MIN TEMP:  48; 6HR MAX TEMP:  66;

SULPHUR SPRNGS CLEAR     50  43  77 CALM      30.31S
6HR MIN TEMP:  49; 6HR MAX TEMP:  66;

MOUNT PLEASANT CLEAR     45  44  99 CALM      30.30F
6HR MIN TEMP:  44; 6HR MAX TEMP:  64;

GILMER         CLEAR     47  42  85 CALM      30.29S
6HR MIN TEMP:  47; 6HR MAX TEMP:  65;

MINEOLA        CLEAR     45  41  87 CALM      30.29S
TYLER          CLEAR     51  41  68 CALM      30.28S
6HR MIN TEMP:  51; 6HR MAX TEMP:  66;

LONGVIEW       CLEAR     51  43  74 CALM      30.27F
6HR MIN TEMP:  50; 6HR MAX TEMP:  67;

MARSHALL       CLEAR     45  42  89 CALM      30.30F
6HR MIN TEMP:  45; 6HR MAX TEMP:  65;

ATHENS         CLEAR     46  41  81 CALM      30.28S
PALESTINE      CLEAR     49  43  79 N3        30.29S
JACKSONVILLE   CLEAR     55  41  59 NE3       30.29S
HENDERSON      CLEAR     44  42  91 CALM      30.29S
6HR MIN TEMP:  44; 6HR MAX TEMP:  62;

CENTER         CLEAR     57  45  63 CALM      30.28S
6HR MIN TEMP:  52; 6HR MAX TEMP:  67;

NACOGDOCHES    CLEAR     47  43  86 CALM      30.27F
6HR MIN TEMP:  47; 6HR MAX TEMP:  67;

LUFKIN         CLEAR     53  45  74 NE7       30.25F
6HR MIN TEMP:  50; 6HR MAX TEMP:  6


USA.gov is the U.S. government's official web portal to all federal, state and local government web resources and services.